Location: Croisilles
(50.1998°N, 2.8793°E)
Time: 13:40:00
(UTC+00:00)

CZ-4B R/B - Pass Details

Date: 21 January 2021
Orbit: 387 x 458 km, 97.6° (Epoch: 26 February)

Event Time Altitude Azimuth Distance (km) Brightness Sun altitude
Exits shadow 18:57:22 - 347° (NNW) 1,661 4.4 -24.1°
Reaches altitude 10° 18:57:35 10° 344° (NNW) 1,592 4.3 -24.2°
Maximum altitude 19:00:08 20° 296° (WNW) 1,095 4.0 -24.6°
Drops below altitude 10° 19:02:38 10° 247° (WSW) 1,555 5.0 -25.0°
Sets 19:04:58 0° 230° (SW) 2,404 5.8 -25.3°
